Notices

What's New in latest Release from April 7th, 2021:

- Updated Glossary, including Speed of Maximum Gust, and Total Hourly Precipitation

- Updated national and regional climate services offices contacts and prices information

- Addition of station inventory lists for 1981-2010, 1971-2000, and 1961-1990 Normals.

If you haven't already, please take our survey and provide feedback about our website: https://eccc.sondage-survey.ca/f/LanguageSelection.aspx?s=442ca660-fcf1-47c0-95a9-59707d6fd709

Hourly Data Report for August 15, 2019

TORONTO CITY
ONTARIO
Current Station Operator: ECCC - MSC

43°40'00.000" N
79°24'00.000" W
112.50 m
6158355
71508
XTO

Download Data

Hourly Data (August 2019)
Hourly Data Report for August 15, 2019
TIME
LST
Temp Definition
°C
Dew Point Definition
°C
Rel Hum Definition
%
Precip. Amount Definition
mm

Wind Dir Definition
10's deg

Wind Spd Definition
km/h
Visibility Definition
km
Stn Press Definition
kPa
Hmdx Definition


Wind Chill Definition


Weather Definition


00:00 19.2 7.3 46 0.0       100.31     LegendNANA
01:00 18.6 7.2 48 0.0       100.33     LegendNANA
02:00 17.9 7.2 49 0.0       100.32     LegendNANA
03:00 17.5 7.1 50 0.0       100.31     LegendNANA
04:00 17.6 7.3 51 0.0       100.30     LegendNANA
05:00 17.4 7.5 52 0.0       100.29     LegendNANA
06:00 17.2 8.0 55 0.0       100.31     LegendNANA
07:00 18.4 9.1 55 0.0       100.33     LegendNANA
08:00 19.6 10.5 56 0.0       100.33     LegendNANA
09:00 20.1 11.8 59 0.0       100.36     LegendNANA
10:00 21.9 12.8 56 0.0       100.36 25   LegendNANA
11:00 22.1 12.5 55 0.0       100.33 25   LegendNANA
12:00 23.3 14.1 56 0.0       100.29 27   LegendNANA
13:00 22.3 13.0 56 0.0       100.25 25   LegendNANA
14:00 21.3 12.5 58 0.0       100.24     LegendNANA
15:00 18.1 13.3 74 3.1       100.17     LegendNANA
16:00 19.3 13.1 67 0.0       100.14     LegendNANA
17:00 20.1 11.9 59 0.0       100.13     LegendNANA
18:00 20.7 10.6 52 0.0       100.11     LegendNANA
19:00 20.2 11.0 56 0.0       100.12     LegendNANA
20:00 20.1 11.2 56 0.0       100.16     LegendNANA
21:00 20.0 11.7 59 0.0       100.14     LegendNANA
22:00 20.0 12.0 60 0.0       100.14     LegendNANA
23:00 19.8 12.2 62 0.0       100.09     LegendNANA

Notes on Data Quality.

Legend

  • E = Estimated
  • M = Missing
  • NA = Not Available*
  • [empty] = Indicates an unobserved value
Date modified: